Location: Beuerbach
(48.1459°N, 10.9174°E)
Time: 02:52:37
(UTC+00:00)

Cosmos 2151 Rocket - Pass Details

Date: 23 May 2024
Orbit: 614 x 639 km, 82.5° (Epoch: 19 June)

Event Time Altitude Azimuth Distance (km) Brightness Sun altitude
Rises 02:34:33 0° 346° (NNW) 2,943 7.5 -7.8°
Reaches altitude 10° 02:36:51 10° 341° (NNW) 2,026 6.5 -7.5°
Maximum altitude 02:41:11 50° 266° (W) 801 3.9 -7.0°
Drops below altitude 10° 02:45:28 10° 191° (S) 1,994 5.7 -6.4°
Sets 02:47:43 0° 186° (S) 2,892 6.6 -6.2°
